Date,TemperatureHighF,TemperatureAvgF,TemperatureLowF,DewpointHighF,DewpointAvgF,DewpointLowF,HumidityHigh,HumidityAvg,HumidityLow,PressureMaxIn,PressureMinIn,WindSpeedMaxMPH,WindSpeedAvgMPH,GustSpeedMaxMPH,PrecipitationSumIn
2013-1-17,24.8,18.7,16.2,18.9,5.5,-99.9,78,62,52,30.02,29.94,10,-30,0,0.00
2013-1-18,34.5,23.7,10.8,23.2,15.0,7.2,87,70,54,30.05,29.58,5,2,0,0.00
2013-1-19,44.1,38.8,35.2,35.1,29.8,23.7,80,70,62,29.68,29.39,6,2,0,0.07
2013-1-20,55.4,21.0,12.9,52.5,12.4,4.0,95,69,57,30.07,29.38,13,4,0,0.00
2013-1-21,55.4,13.5,1.9,52.5,5.5,-7.2,90,70,49,29.98,29.81,7,2,0,0.00
2013-1-22,9.9,3.2,-2.2,-2.2,-6.3,-10.9,78,64,46,30.10,29.97,4,2,0,0.00
2013-1-23,18.3,9.9,-0.4,13.2,4.7,-4.7,92,79,64,30.08,29.83,3,0,0,0.00
2013-1-24,13.5,8.5,4.1,10.9,3.5,0.0,93,80,60,30.35,29.93,4,1,0,0.00
2013-1-25,25.9,17.2,9.0,16.9,12.0,3.0,90,80,66,30.21,29.69,3,0,0,0.00
2013-1-26,29.1,20.6,12.2,18.5,15.5,9.6,93,81,59,30.15,29.76,4,1,0,0.00
2013-1-27,32.4,22.2,11.3,27.7,16.6,9.2,97,80,54,30.18,29.82,4,1,0,0.00
2013-1-28,41.7,35.5,28.8,41.4,35.1,27.9,99,99,96,29.81,29.53,5,1,0,0.55
2013-1-29,55.2,43.9,33.1,54.9,43.6,32.8,99,99,99,29.74,29.20,3,1,0,0.59
2013-1-30,55.4,45.3,31.1,55.1,44.9,28.0,99,99,88,29.19,28.91,6,2,0,0.57
2013-1-31,30.7,21.4,16.3,27.6,15.8,9.2,91,79,66,29.76,29.07,9,4,0,0.00
2013-2-1,19.0,15.4,11.1,13.0,9.0,4.1,87,76,59,30.11,29.76,6,3,0,0.00
2013-2-2,22.5,14.2,1.6,16.3,9.6,-1.1,90,82,71,30.06,29.84,6,1,0,0.00
2013-2-3,23.5,11.7,1.0,16.3,6.8,-1.9,91,81,66,29.91,29.72,5,1,0,0.00
2013-2-4,25.9,17.2,8.6,16.1,12.3,6.2,92,81,65,29.92,29.77,4,0,0,0.00
2013-2-5,28.0,19.0,5.4,26.0,14.9,3.1,96,85,62,29.88,29.68,4,1,0,0.00
2013-2-6,28.9,20.7,9.1,18.5,14.5,7.2,95,77,63,30.19,29.89,5,0,0,0.00
2013-2-7,37.8,30.4,25.3,27.2,22.7,17.6,97,73,62,30.18,29.82,6,2,0,0.04
2013-2-8,28.0,23.8,16.0,27.8,21.9,14.0,99,92,78,30.26,29.75,13,4,0,0.00
2013-2-9,30.2,17.3,1.8,18.8,12.0,-1.2,96,81,54,30.33,30.15,2,0,0,0.00
2013-2-10,41.5,29.7,17.2,37.7,24.5,16.5,97,82,53,30.15,29.53,4,1,0,0.20
2013-2-11,41.5,36.6,31.8,41.2,32.4,27.4,99,85,70,29.72,29.39,10,3,0,0.06
2013-2-12,31.6,29.6,26.8,27.3,23.9,21.5,84,79,74,29.92,29.73,8,2,0,0.00
2013-2-13,36.9,30.4,26.8,27.9,24.7,21.5,90,79,68,29.82,29.63,4,1,0,0.00
2013-2-14,39.7,33.8,28.8,35.7,31.3,26.8,99,90,82,29.75,29.55,5,2,0,0.01
2013-2-15,29.8,25.5,21.6,28.0,17.9,13.9,93,73,55,30.03,29.76,7,2,0,0.00
2013-2-16,30.2,20.1,14.2,20.1,15.0,8.2,95,81,54,30.02,29.90,6,1,0,0.00
2013-2-17,23.0,13.7,5.0,11.6,5.7,2.2,90,72,48,30.11,30.00,6,1,0,0.00
2013-2-18,43.2,29.8,12.6,35.6,20.4,7.1,78,68,55,30.11,29.47,4,2,0,0.03
2013-2-19,44.8,29.3,18.1,40.3,25.0,12.5,98,84,72,29.82,29.28,6,3,0,0.03
2013-2-20,24.3,19.5,15.8,15.4,11.7,8.3,81,71,58,30.17,29.82,8,4,0,0.00
2013-2-21,23.0,19.1,15.4,19.7,12.9,9.9,94,77,62,30.33,30.17,7,3,0,0.00
2013-2-22,32.0,27.1,21.4,31.8,25.0,17.6,99,92,80,30.21,29.77,7,2,0,0.00
2013-2-23,36.5,30.4,25.0,32.0,25.5,21.1,99,82,62,29.83,29.76,5,1,0,0.05
2013-2-24,39.6,29.0,21.2,30.6,23.9,19.0,97,83,56,30.07,29.80,5,1,0,0.05
2013-2-25,42.8,30.3,20.3,27.0,22.5,18.9,95,75,47,30.16,30.04,4,1,0,0.03
2013-2-26,36.3,31.3,25.0,32.7,27.4,20.5,99,86,69,30.07,29.47,12,5,0,0.02
2013-2-27,37.9,34.3,32.5,36.2,33.6,32.3,99,97,92,29.48,29.40,7,2,0,0.10
2013-2-28,33.8,31.8,27.9,33.1,29.7,24.0,99,92,81,29.91,29.47,12,4,0,0.10
2013-3-1,28.0,25.1,22.8,24.4,21.0,18.9,89,84,79,30.05,29.91,9,4,0,0.00
2013-3-2,27.0,23.5,18.7,20.6,19.0,16.2,91,83,74,30.02,29.98,8,2,0,0.00
2013-3-3,28.9,22.3,15.1,18.3,15.5,12.7,90,75,59,29.99,29.92,6,1,0,0.00
2013-3-4,30.7,20.3,9.3,17.9,12.8,7.4,95,74,47,30.08,29.98,5,1,0,0.00
2013-3-5,34.9,25.2,14.2,25.1,20.1,12.1,92,81,67,30.07,29.80,10,4,0,0.00
2013-3-6,40.1,31.2,22.5,30.6,26.7,20.6,95,84,66,30.14,29.84,8,2,0,0.01
2013-3-7,37.4,31.2,21.7,30.6,25.8,18.4,98,81,58,30.34,30.13,5,1,0,0.00
2013-3-8,41.5,28.2,16.3,28.2,22.0,14.9,96,79,57,30.43,30.33,4,1,0,0.00
2013-3-9,46.8,35.3,23.7,32.6,28.4,23.0,98,78,53,30.34,29.95,4,1,0,0.00
2013-3-10,58.1,47.3,36.0,44.1,38.3,31.9,90,72,54,29.95,29.70,3,1,0,0.00
2013-3-11,53.8,47.8,36.7,48.8,44.1,34.6,99,88,65,29.71,29.37,3,2,0,0.30
2013-3-12,38.3,34.0,28.6,34.5,29.2,25.0,95,83,62,29.81,29.57,5,2,0,0.00
2013-3-13,32.7,28.4,24.1,26.7,19.2,12.2,91,69,43,30.10,29.77,8,3,0,0.00
2013-3-14,38.3,28.9,21.0,22.4,18.0,13.5,83,64,45,30.18,29.98,6,2,0,0.00
2013-3-15,39.7,34.1,29.1,31.7,28.7,19.9,91,80,67,29.98,29.78,5,2,0,0.00
2013-3-16,35.2,28.7,24.3,27.5,24.6,22.9,96,85,70,29.95,29.72,8,3,0,0.00
2013-3-17,28.8,23.6,18.7,23.9,14.8,6.9,90,70,48,30.22,29.94,8,3,0,0.00
2013-3-18,33.8,28.1,18.5,32.7,23.8,12.7,99,84,66,30.14,29.47,9,2,0,0.00
2013-3-19,33.3,26.3,22.5,31.5,20.8,15.9,93,79,63,29.82,29.49,7,3,0,0.01
2013-3-20,28.6,23.2,16.0,20.0,14.7,9.8,81,70,52,29.85,29.79,7,2,0,0.00
2013-3-21,33.1,24.5,15.8,26.4,19.3,10.4,92,81,70,29.84,29.75,6,2,0,0.00
2013-3-22,40.6,29.6,24.1,23.1,19.9,17.7,85,68,47,29.95,29.84,8,2,0,0.04
2013-3-23,39.0,31.7,24.4,25.3,23.7,21.4,88,73,57,30.04,29.95,6,1,0,0.02
2013-3-24,37.9,28.7,20.1,28.3,22.8,18.4,97,80,54,29.99,29.62,11,4,0,0.00
2013-3-25,38.5,34.1,30.2,30.0,26.5,23.5,79,74,63,29.85,29.56,14,6,0,0.00
2013-3-26,44.1,35.8,31.3,34.0,29.6,26.1,90,78,60,30.03,29.85,7,2,0,0.00
2013-3-27,46.0,37.5,28.4,29.0,26.7,24.1,86,66,48,30.13,30.03,8,2,0,0.01
2013-3-28,54.1,39.8,31.5,30.3,26.4,24.2,79,60,36,30.20,30.13,5,2,0,0.00
2013-3-29,55.9,38.0,25.3,25.2,23.4,21.2,87,59,29,30.22,30.13,4,1,0,0.00
2013-3-30,50.2,31.9,24.4,27.2,23.6,21.3,89,73,39,30.14,30.04,3,0,0,0.00
2013-4-9,47.8,43.8,38.7,45.9,43.4,38.4,99,98,92,29.96,29.81,8,3,0,2.14
2013-4-10,41.0,38.3,36.0,40.7,37.8,33.9,99,98,92,29.96,29.79,12,5,0,1.44
2013-4-11,37.2,34.9,33.6,35.0,34.0,33.1,99,97,88,29.91,29.56,11,5,0,0.70
2013-4-12,41.9,36.1,32.5,38.6,34.9,32.3,99,96,80,29.62,29.42,10,4,0,0.46
2013-4-13,43.0,37.5,33.8,38.4,32.4,25.9,99,83,58,29.86,29.62,14,6,0,0.14
2013-4-14,52.3,39.3,28.2,36.6,31.5,27.7,98,75,53,30.00,29.82,7,3,0,0.00
2013-4-15,69.6,55.6,38.5,55.6,46.1,33.8,93,71,57,29.82,29.72,10,4,0,0.02
2013-4-16,61.5,51.7,44.4,56.1,43.2,34.9,99,77,40,30.18,29.75,9,4,0,0.27
2013-4-17,57.0,43.0,33.3,42.7,36.5,30.8,99,79,51,30.30,29.97,8,3,0,0.76
2013-4-18,76.6,57.7,43.0,65.5,54.9,42.7,99,91,67,29.96,29.42,14,5,0,0.72
2013-4-19,58.6,43.5,32.0,58.3,39.6,30.4,99,87,65,29.62,29.24,14,7,0,1.16
2013-4-20,38.5,32.2,23.2,30.7,22.9,17.6,95,69,52,30.37,29.62,12,6,0,0.00
2013-4-21,54.1,35.9,18.7,32.6,24.6,17.7,99,68,36,30.55,30.37,6,2,0,0.05
2013-4-22,65.1,47.0,29.1,37.5,31.6,24.7,97,60,29,30.38,30.10,5,2,0,0.00
2013-4-23,68.0,54.4,40.6,54.1,42.5,34.2,99,67,42,30.11,29.73,14,4,0,0.41
2013-4-24,45.7,38.1,33.4,43.6,34.7,28.2,99,89,53,30.01,29.71,11,5,0,0.72
2013-4-25,53.1,41.0,34.0,40.2,31.7,27.1,93,71,42,30.25,29.97,12,5,0,0.05
2013-4-26,62.1,46.3,27.1,38.3,32.9,26.9,99,64,36,30.36,30.22,8,3,0,0.00
2013-4-27,75.9,57.4,40.1,45.8,39.3,34.8,85,55,25,30.25,30.03,7,2,0,0.00
2013-4-28,66.7,53.7,41.5,53.8,46.1,36.0,99,77,52,30.02,29.76,6,2,0,0.17
2013-4-29,72.9,60.0,52.3,56.8,53.5,52.0,99,81,51,29.85,29.75,5,2,0,0.03
2013-4-30,75.7,62.4,53.1,58.9,55.4,52.3,98,79,51,29.98,29.82,8,3,0,0.37
2013-5-1,84.6,70.3,54.3,61.4,56.5,52.0,94,65,40,30.14,29.96,7,3,0,0.00
2013-5-2,82.0,68.0,54.3,59.2,52.9,48.5,86,61,42,30.17,30.04,8,3,0,0.00
2013-5-3,81.0,66.8,55.0,58.5,47.5,36.3,74,52,22,30.06,29.98,8,2,0,0.00
2013-5-4,76.3,63.9,47.5,52.4,44.8,37.2,76,52,29,30.05,29.97,8,3,0,0.00
2013-5-5,78.6,60.8,44.8,49.7,41.7,36.2,84,54,23,30.04,29.94,6,2,0,0.00
2013-5-6,84.2,61.3,41.4,50.6,43.8,38.1,96,58,28,30.01,29.88,5,1,0,0.00
2013-5-7,80.1,63.2,43.3,56.4,48.7,38.3,87,61,41,30.00,29.90,5,1,0,0.00
2013-5-8,84.9,64.9,45.1,54.8,48.6,42.6,98,61,29,29.95,29.83,8,2,0,0.00
2013-5-9,84.6,65.7,47.3,58.3,51.7,47.0,99,66,33,29.89,29.78,6,1,0,0.00
2013-5-10,66.6,48.8,22.5,55.9,46.0,6.3,99,91,49,29.82,29.70,12,5,0,0.40
2013-5-11,64.6,46.1,35.1,49.6,41.8,33.1,99,86,53,29.80,29.60,19,5,0,0.05
2013-5-12,48.9,39.4,30.6,34.9,30.4,24.0,94,71,51,30.00,29.75,19,7,0,0.00
2013-5-13,60.1,42.1,26.4,32.2,27.3,24.0,91,59,29,30.08,30.00,11,3,0,0.00
2013-5-14,70.3,55.0,43.2,51.8,40.7,31.3,81,59,46,30.01,29.62,5,2,0,0.00
2013-5-15,82.4,69.3,53.4,58.6,50.5,42.7,84,55,28,29.70,29.45,12,5,0,0.01
2013-5-16,83.3,63.3,46.2,50.0,45.5,39.6,93,57,26,29.98,29.70,9,3,0,0.01
2013-5-17,70.7,56.3,40.5,49.1,43.8,37.5,93,65,44,30.09,29.97,6,2,0,0.00
2013-5-18,85.8,65.5,52.7,56.8,49.6,43.9,83,59,33,30.10,29.95,6,2,0,0.00
2013-5-19,92.3,71.2,50.5,65.3,56.7,46.6,89,63,40,29.96,29.77,6,1,0,0.00
2013-5-20,91.2,74.3,62.2,73.1,65.7,60.1,98,77,46,29.83,29.64,12,3,0,0.46
2013-5-21,87.4,74.7,63.0,67.9,64.3,60.9,99,72,48,29.72,29.60,8,2,0,0.00
2013-5-22,78.6,67.8,62.8,69.0,64.3,60.7,97,89,67,29.64,29.50,10,2,0,0.51
2013-5-23,62.6,49.9,40.8,61.7,48.7,39.2,99,96,89,30.08,29.57,12,5,0,0.34
2013-5-24,65.3,46.6,38.5,42.8,38.0,34.1,98,74,41,30.30,30.09,10,4,0,0.02
2013-5-25,67.5,51.2,32.0,43.2,39.0,30.5,99,67,36,30.34,30.20,9,2,0,0.00
2013-5-26,70.5,53.5,33.6,44.6,38.6,31.4,98,62,29,30.29,30.16,10,2,0,0.00
2013-5-27,73.9,54.4,36.7,49.9,41.9,35.4,97,68,28,30.19,29.94,6,2,0,0.00
2013-5-28,76.8,61.6,52.2,70.2,60.1,50.0,99,95,80,29.93,29.69,5,2,0,2.05
2013-5-29,84.0,72.2,62.6,70.7,67.2,62.2,99,85,62,29.89,29.65,9,2,0,0.70
2013-5-30,87.6,75.0,63.7,74.3,68.1,62.2,96,80,59,29.96,29.85,8,2,0,0.48
2013-5-31,80.8,74.5,68.9,72.1,67.7,65.8,91,80,63,29.89,29.74,10,3,0,0.08
2013-6-1,81.3,73.6,65.1,68.2,66.2,63.9,96,79,61,29.69,29.64,8,4,0,0.00
2013-6-2,66.2,59.1,49.5,61.2,51.5,42.3,87,76,71,29.93,29.63,10,6,0,0.02
2013-6-3,74.8,59.0,42.1,49.4,44.4,38.5,87,61,38,30.01,29.92,8,3,0,0.00
2013-6-4,77.5,65.4,54.5,50.7,46.1,41.6,76,51,33,30.14,30.08,6,2,0,0.00
2013-6-5,76.5,67.1,59.4,54.9,49.5,43.4,65,54,42,30.13,29.94,5,2,0,0.00
2013-6-6,69.3,65.3,61.2,56.1,53.5,49.6,69,66,61,29.87,29.81,7,4,0,0.00
2013-6-8,82.0,73.1,63.9,58.1,56.7,55.0,78,57,44,29.95,29.91,3,1,0,0.00
2013-6-9,79.9,77.0,74.8,62.8,60.5,57.8,60,57,54,30.03,29.91,7,3,0,0.00
2013-6-10,75.2,70.2,62.8,69.0,66.7,62.5,99,89,79,29.72,29.65,5,2,0,0.10
2013-6-11,84.2,70.9,61.3,69.4,64.7,61.0,99,82,60,29.81,29.70,8,3,0,0.01
2013-6-12,78.6,70.5,58.3,69.6,65.5,57.2,99,85,68,29.83,29.59,5,1,0,0.05
2013-6-13,80.4,69.2,61.3,64.9,60.6,57.4,98,76,48,29.85,29.52,12,5,0,0.70
2013-6-14,81.9,65.2,53.1,58.3,52.7,46.7,90,67,31,30.03,29.86,8,4,0,0.00
2013-6-15,79.7,71.7,57.2,65.0,61.4,56.0,96,71,55,30.00,29.81,5,2,0,0.00
2013-6-16,85.6,71.6,63.7,69.0,63.4,57.8,99,77,45,29.81,29.65,9,3,0,0.35
2013-6-17,84.0,69.6,58.3,70.9,60.6,56.3,93,75,48,29.86,29.72,9,2,0,0.63
2013-6-19,86.4,72.8,56.5,55.0,51.6,46.4,85,50,32,30.10,30.01,4,0,0,0.00
2013-6-20,91.2,67.6,47.7,60.1,54.3,46.6,97,67,33,30.14,30.05,5,0,0,0.00
2013-6-21,86.9,70.9,54.9,70.1,60.8,53.5,96,73,51,30.13,29.93,0,0,0,0.00
2013-6-22,90.5,78.3,66.0,74.4,68.1,60.2,95,72,55,29.98,29.83,6,1,0,0.05
2013-6-23,96.1,80.2,68.7,72.8,70.4,67.7,99,75,42,29.94,29.84,10,2,0,0.00
2013-6-24,91.0,82.8,70.3,73.6,70.7,66.4,93,68,54,29.94,29.79,8,2,0,0.00
2013-6-25,84.4,73.2,67.5,72.7,68.4,65.3,96,86,62,29.87,29.72,7,1,0,0.23
2013-6-26,91.4,76.2,65.5,72.8,69.0,63.9,97,80,54,29.77,29.63,6,0,0,0.00
2013-6-27,85.5,72.4,65.5,74.2,68.6,64.3,99,89,67,29.66,29.55,5,0,0,0.56
2013-6-28,77.0,68.1,61.9,68.3,65.5,61.2,98,92,70,29.58,29.43,6,2,0,1.10
2013-6-29,75.2,67.5,60.6,63.4,61.4,57.9,99,82,61,29.67,29.46,9,2,0,0.00
2013-6-30,81.7,68.5,58.1,66.9,58.5,45.8,95,72,47,29.90,29.67,8,2,0,0.02
2013-7-1,72.0,62.6,54.5,59.7,52.4,47.2,78,70,58,30.04,29.90,9,4,0,0.00
2013-7-2,78.4,64.7,57.7,63.7,57.0,49.7,94,77,57,30.01,29.95,8,2,0,0.10
2013-7-3,84.7,71.0,56.8,72.1,64.3,55.7,99,81,58,30.03,29.94,5,2,0,0.00
2013-7-4,80.4,72.5,63.9,69.0,64.2,60.4,99,77,53,30.03,29.97,8,2,0,0.00
2013-7-5,91.2,75.3,62.4,67.8,64.5,59.7,95,72,44,30.03,29.92,4,1,0,0.00
2013-7-6,89.4,76.0,67.1,72.2,68.6,65.6,97,79,55,30.01,29.86,6,1,0,0.00
2013-7-7,84.2,74.9,70.0,72.3,70.2,67.7,97,86,66,29.93,29.85,5,2,0,0.49
2013-7-8,83.8,75.4,70.2,75.7,70.7,67.3,94,86,75,29.92,29.87,6,2,0,0.11
2013-7-9,88.3,77.0,70.3,75.4,71.4,68.5,96,84,63,29.89,29.74,9,2,0,0.07
2013-7-10,89.4,78.8,72.5,76.1,70.8,58.3,97,79,49,29.83,29.64,13,4,0,0.00
2013-7-11,81.7,67.3,56.1,60.6,57.6,53.7,95,73,46,30.00,29.87,9,3,0,0.00
2013-7-12,87.6,64.3,51.3,65.5,56.9,49.1,96,79,43,30.10,30.00,5,1,0,0.00
2013-7-13,90.3,76.9,63.1,66.1,62.7,56.2,90,64,39,30.13,30.06,4,1,0,0.00
2013-7-14,95.2,86.3,78.4,73.6,72.0,69.4,77,63,50,30.17,30.12,4,1,0,0.00
2013-7-15,93.6,83.0,68.9,78.5,73.7,67.0,95,75,59,30.21,30.12,5,1,0,0.00
2013-7-16,87.3,85.9,84.6,77.1,76.8,76.6,77,74,72,30.21,30.19,3,2,0,0.00
2013-8-13,69.6,61.7,52.7,51.7,48.5,45.5,78,62,49,29.98,29.89,12,6,0,0.00
2013-8-14,79.3,58.2,45.9,54.9,49.9,45.1,99,76,39,30.09,29.98,8,3,0,0.00
2013-8-15,81.0,60.6,43.7,59.4,51.8,42.4,98,76,48,30.10,29.99,6,1,0,0.00
2013-8-16,90.3,65.4,47.3,60.5,54.5,45.9,98,72,33,30.14,30.03,5,1,0,0.00
2013-8-17,90.0,66.9,50.0,62.1,55.7,49.2,99,72,36,30.20,30.09,4,1,0,0.00
2013-8-18,91.4,67.9,50.9,64.8,57.9,49.8,99,75,37,30.17,30.01,5,1,0,0.00
2013-8-19,88.7,70.5,53.6,65.8,59.4,52.5,98,72,39,30.05,29.93,8,2,0,0.00
2013-8-20,92.1,72.9,56.7,69.2,63.1,55.3,98,74,44,30.06,29.95,6,2,0,0.00
2013-8-21,90.1,75.9,62.8,71.3,66.5,61.6,98,75,51,30.04,29.86,7,2,0,0.00
2013-8-22,83.7,75.0,65.1,71.6,67.8,61.1,96,79,63,29.99,29.80,7,2,0,0.13
2013-8-23,86.9,66.5,51.3,64.1,57.8,49.9,99,77,41,30.14,29.99,7,2,0,0.00
2013-8-24,87.6,68.5,51.8,63.4,56.4,49.6,96,70,38,30.26,30.15,5,1,0,0.00
2013-8-25,89.1,73.0,55.2,70.3,62.8,53.8,99,73,49,30.22,30.01,11,3,0,0.00
2013-8-26,86.5,76.7,69.6,76.0,68.6,63.9,89,77,65,30.05,29.87,7,2,0,0.05
2013-8-27,81.9,75.5,70.2,75.3,71.9,68.4,96,89,78,29.90,29.73,11,2,0,0.70
2013-8-28,84.9,74.4,64.2,74.3,70.6,62.7,98,89,65,29.95,29.71,8,2,0,0.00
2013-8-29,91.9,73.3,61.3,74.4,66.8,60.3,98,82,50,30.02,29.91,5,1,0,0.00
2013-8-30,88.3,77.0,67.3,74.1,69.7,65.0,96,80,59,29.92,29.61,10,3,0,0.00
2013-8-31,79.9,71.7,61.2,71.0,66.2,59.2,95,84,67,29.78,29.68,7,3,0,0.00
2013-9-1,81.5,67.7,58.3,71.6,64.2,57.2,97,89,72,29.79,29.63,3,0,0,0.02
2013-9-2,73.6,65.9,55.6,68.7,59.9,53.1,97,82,60,29.85,29.64,11,5,0,0.00
2013-9-3,79.9,63.8,55.4,57.8,54.4,52.1,95,73,44,29.94,29.83,9,4,0,0.01
2013-9-4,84.4,67.1,53.2,66.1,59.6,51.1,97,79,53,30.01,29.89,11,3,0,0.00
2013-9-5,72.3,58.3,44.8,61.5,49.4,42.3,97,75,38,30.20,30.01,11,3,0,0.00
2013-9-6,80.4,59.5,41.0,55.6,49.0,39.4,97,72,41,30.22,29.98,7,1,0,0.00
2013-9-7,77.7,68.4,56.1,70.0,61.5,51.3,94,79,65,29.98,29.79,10,2,0,0.16
2013-9-8,76.8,66.9,52.9,67.5,57.7,48.6,94,74,46,30.04,29.85,9,3,0,0.00
2013-9-9,82.6,65.6,47.8,70.5,59.8,45.3,96,83,67,30.00,29.78,6,2,0,0.00
2013-9-10,95.7,83.2,71.6,74.8,69.9,65.6,88,67,41,29.89,29.76,13,4,0,0.00
2013-9-11,89.2,80.2,68.2,73.2,68.6,63.7,89,68,55,29.92,29.82,5,2,0,0.00
2013-9-12,79.3,67.3,57.6,64.2,58.1,46.4,97,74,47,29.90,29.76,12,4,0,0.04
2013-9-13,61.3,52.4,37.6,46.6,43.3,35.1,93,72,47,30.07,29.90,14,5,0,0.00
2013-9-14,72.9,51.2,31.8,46.0,39.8,30.0,98,70,35,30.13,30.00,7,1,0,0.00
2013-9-15,64.8,54.5,44.4,54.6,48.3,41.0,96,81,56,30.05,29.98,3,1,0,0.09
2013-9-16,61.3,53.7,37.2,54.1,47.4,34.5,97,81,54,30.32,30.05,9,4,0,0.03
2013-9-17,71.8,49.4,31.5,53.1,41.2,29.8,97,77,42,30.35,30.15,6,1,0,0.00
2013-9-18,79.5,59.7,40.5,58.3,49.8,38.3,97,73,45,30.15,29.93,7,2,0,0.00
2013-9-19,82.4,69.4,56.8,69.5,62.9,54.8,96,81,64,29.95,29.80,6,1,0,0.00
2013-9-20,79.0,71.6,66.6,71.4,67.1,63.9,93,86,72,29.80,29.63,7,2,0,0.05
2013-9-21,69.3,61.2,52.7,64.6,54.4,45.0,94,79,53,29.79,29.59,11,4,0,0.00
2013-9-22,61.0,49.5,38.5,45.2,41.4,35.7,93,75,52,30.01,29.80,8,3,0,0.00
2013-9-23,64.8,49.0,36.1,47.3,42.2,34.5,97,79,53,30.13,30.02,3,1,0,0.00
2013-9-24,74.3,50.8,34.2,52.2,43.1,32.8,98,78,46,30.09,29.93,6,1,0,0.00
2013-9-25,76.6,54.2,35.4,55.3,45.9,33.6,97,77,42,29.95,29.87,6,1,0,0.00
2013-9-26,80.6,55.8,38.3,58.3,47.4,36.5,98,78,37,30.08,29.93,6,1,0,0.00
2013-9-27,81.7,60.0,41.4,57.4,49.9,40.2,98,74,39,30.17,30.07,5,1,0,0.00
2013-9-28,80.4,62.1,46.0,60.7,52.6,44.1,98,75,42,30.13,29.93,9,2,0,0.00
2013-9-29,67.1,60.4,49.5,60.7,55.6,47.8,96,85,72,29.93,29.85,7,2,0,0.14
2013-9-30,76.1,58.3,47.3,57.4,51.3,46.5,97,81,44,29.95,29.83,5,1,0,0.00
2013-10-1,77.7,62.2,48.2,64.1,56.9,47.4,99,84,60,29.91,29.80,9,3,0,0.00
2013-10-2,81.3,64.1,48.0,60.7,51.0,41.8,98,69,26,30.01,29.83,6,2,0,0.00
2013-10-3,84.2,66.2,47.5,68.3,57.8,44.6,92,76,58,29.99,29.80,7,2,0,0.00
2013-10-4,84.2,70.4,63.3,68.8,64.9,61.6,96,84,60,29.96,29.82,6,2,0,0.24
2013-10-5,77.5,68.0,62.6,68.9,64.7,61.0,96,90,75,29.96,29.76,5,1,0,0.46
2013-10-6,73.0,65.4,53.4,66.7,62.2,52.0,96,90,76,29.76,29.55,8,3,0,0.44
2013-10-7,61.9,52.2,45.5,52.7,47.2,42.6,96,84,57,30.01,29.57,10,3,0,0.03
2013-10-8,70.9,54.1,38.8,50.9,45.3,37.8,98,75,47,30.21,30.01,6,1,0,0.00
2013-10-9,75.2,55.0,40.3,54.6,46.3,39.2,98,76,43,30.25,30.13,6,1,0,0.00
2013-10-10,77.9,54.2,39.4,55.7,44.5,38.6,98,75,35,30.17,30.04,8,1,0,0.00
2013-10-11,78.4,53.8,37.2,54.5,43.3,36.2,98,73,31,30.10,29.98,5,1,0,0.00
2013-10-12,78.4,60.8,43.9,63.1,53.2,41.6,99,79,53,30.03,29.92,8,1,0,0.00
2013-10-13,68.4,58.4,42.4,57.8,48.0,39.1,90,70,44,30.28,30.00,9,3,0,0.00
2013-10-14,63.7,47.8,35.4,47.0,40.3,34.1,98,78,45,30.35,30.20,6,1,0,0.00
2013-10-15,68.2,51.8,33.8,59.9,47.7,32.5,98,87,67,30.20,29.71,9,2,0,0.27
2013-10-16,61.5,55.1,50.9,60.1,50.6,47.3,96,85,71,29.80,29.69,9,4,0,0.00
2013-10-17,54.9,50.4,44.4,51.1,48.4,43.1,96,93,85,29.80,29.65,6,2,0,0.44
2013-10-18,64.8,50.1,41.0,48.0,43.0,40.2,98,79,43,29.80,29.71,7,3,0,0.01
2013-10-19,54.1,45.6,37.8,44.7,40.4,35.0,96,83,50,29.78,29.62,10,3,0,0.13
2013-10-20,57.9,47.7,38.7,44.0,40.4,37.4,97,77,53,29.81,29.68,10,3,0,0.08
2013-10-21,55.8,50.1,42.6,49.2,43.4,35.9,92,78,65,29.75,29.68,11,4,0,0.12
2013-10-22,49.8,41.3,32.5,34.4,31.0,27.0,81,67,53,29.79,29.73,12,4,0,0.00
2013-10-23,47.1,37.3,28.9,34.2,30.9,24.2,96,79,41,29.83,29.74,9,2,0,0.00
2013-10-24,48.6,36.6,28.0,37.0,30.7,25.6,97,80,54,30.07,29.82,11,3,0,0.01
2013-10-25,49.8,38.1,28.6,36.4,30.4,27.8,97,76,48,30.22,29.94,8,3,0,0.00
2013-10-26,53.4,43.4,36.9,42.2,34.5,29.0,90,71,57,29.94,29.62,18,6,0,0.16
2013-10-27,53.1,40.8,31.6,37.8,32.9,29.7,94,75,55,29.96,29.86,8,2,0,0.00
2013-10-28,49.3,40.4,33.1,37.6,33.0,29.7,93,75,63,30.35,29.93,6,2,0,0.00
2013-10-29,48.7,40.8,34.9,37.5,33.1,30.0,86,74,62,30.37,30.16,5,1,0,0.00
2013-10-30,64.9,46.7,29.1,50.5,39.6,27.9,96,78,57,30.15,29.85,5,1,0,0.00
2013-10-31,61.3,58.6,52.5,60.1,57.3,49.0,97,95,85,29.85,29.00,9,4,0,1.44
2013-11-1,61.0,49.5,45.1,59.4,45.6,42.0,95,87,77,29.55,28.93,14,6,0,0.16
2013-11-2,45.5,41.5,32.5,44.7,39.6,31.1,97,93,85,30.03,29.55,10,4,0,0.32
2013-11-3,47.5,34.9,24.4,38.9,30.8,22.7,98,86,65,30.38,30.03,4,1,0,0.01
2013-11-4,50.0,39.6,29.7,36.4,30.7,25.8,94,72,45,30.39,30.19,8,3,0,0.00
2013-11-5,57.7,52.1,44.6,47.2,44.1,36.5,84,74,68,30.26,30.05,7,3,0,0.00
2013-11-6,55.6,51.8,41.5,53.6,47.4,38.1,94,85,66,30.05,29.65,12,6,0,0.42
2013-11-7,43.5,39.0,36.0,38.5,31.4,27.8,89,74,58,30.03,29.90,12,5,0,0.00
2013-11-8,46.0,37.6,28.8,30.2,27.5,24.0,85,67,47,30.18,30.01,7,3,0,0.00
2013-11-9,54.5,46.0,35.4,42.3,36.4,29.2,82,70,57,30.07,29.67,13,6,0,0.00
2013-11-10,49.1,41.0,29.8,35.1,31.5,25.6,86,69,54,30.16,29.78,21,6,0,0.00
2013-11-11,41.7,35.1,25.9,38.2,30.3,20.2,96,83,74,30.23,29.93,11,5,0,0.21
2013-11-12,35.2,26.1,18.5,22.8,18.0,13.5,89,72,52,30.45,30.24,11,5,0,0.00
2013-11-13,42.6,29.8,16.2,27.0,19.3,13.8,93,67,43,30.44,30.01,13,5,0,0.00
2013-11-14,52.0,39.8,31.5,30.8,24.8,19.7,66,55,43,30.02,29.83,12,5,0,0.00
2013-11-15,56.5,45.1,38.3,32.5,28.8,25.1,71,53,39,29.95,29.86,9,4,0,0.00
2013-11-16,56.7,46.2,32.0,52.3,40.7,27.9,94,81,67,29.99,29.67,12,3,0,0.00
2013-11-17,62.8,56.8,42.4,59.0,53.9,39.4,97,90,83,29.68,29.05,20,6,0,0.98
2013-11-18,45.0,38.9,34.7,41.4,31.2,25.0,91,74,66,30.02,29.29,18,9,0,0.01
2013-11-19,40.3,32.5,23.2,25.7,23.6,20.3,93,70,55,30.33,30.03,16,4,0,0.00
2013-11-20,46.6,31.9,19.8,34.6,25.9,18.4,97,80,48,30.36,30.15,6,2,0,0.00
2013-11-21,51.3,44.2,37.6,42.9,37.9,29.0,97,79,67,30.20,30.08,6,2,0,0.10
2013-11-22,43.9,36.9,23.5,43.6,34.7,21.8,99,92,74,30.27,30.04,14,4,0,0.10
2013-11-23,26.8,22.5,15.4,23.7,15.6,5.4,94,76,46,30.41,30.16,16,7,0,0.01
2013-11-24,24.3,17.9,12.7,14.7,10.8,8.5,87,74,53,30.48,30.28,11,5,0,0.00
2013-11-25,32.7,25.6,18.7,26.8,15.0,6.7,92,65,43,30.27,29.92,13,6,0,0.00
2013-11-26,32.4,30.2,28.0,29.1,27.7,24.4,95,90,85,29.97,29.83,7,4,0,0.00
2013-11-27,27.9,21.1,14.9,24.3,14.0,8.7,89,74,57,30.08,29.85,14,6,0,0.00
2013-11-28,29.3,20.6,10.2,22.4,17.1,8.1,93,86,75,30.33,30.08,6,1,0,0.00
2013-11-29,31.3,22.3,8.2,23.6,19.3,6.6,96,88,72,30.57,30.34,4,1,0,0.01
2013-11-30,44.6,34.5,22.8,30.8,26.6,20.3,90,74,56,30.46,29.98,7,3,0,0.00
2013-12-1,40.5,35.4,31.3,34.0,31.3,28.4,95,85,68,29.97,29.91,8,3,0,0.00
2013-12-2,41.4,30.7,21.0,29.0,25.4,19.3,94,82,52,29.92,29.80,4,0,0,0.00
2013-12-3,33.8,29.1,18.9,33.3,26.9,17.2,98,92,82,29.84,29.75,6,2,0,0.12
2013-12-4,55.4,43.8,33.8,52.5,42.1,33.3,99,94,84,29.80,29.48,6,2,0,0.21
2013-12-5,57.7,40.6,28.2,54.5,34.1,20.9,91,77,64,30.04,29.47,13,6,0,0.00
2013-12-6,28.0,22.9,16.9,21.0,15.6,10.3,80,73,67,30.30,30.03,9,5,0,0.00
2013-12-7,23.4,17.5,7.2,11.6,9.3,4.7,89,70,56,30.52,30.31,10,4,0,0.00
2013-12-8,25.7,16.9,4.6,23.0,11.8,1.1,93,81,60,30.51,29.90,6,2,0,0.00
2013-12-9,28.9,25.2,16.3,26.5,21.3,8.3,96,85,70,29.98,29.75,14,5,0,0.00
2013-12-10,21.0,13.6,-0.2,15.9,7.7,-2.2,92,78,51,30.06,29.78,15,4,0,0.00
2013-12-11,21.6,14.2,3.2,15.3,8.5,-0.6,90,78,57,30.33,30.06,13,4,0,0.00
2013-12-12,19.4,13.9,3.0,15.6,9.2,0.3,92,81,63,30.34,30.03,12,5,0,0.00
2013-12-13,28.2,22.4,18.7,19.7,17.0,15.0,87,79,65,30.22,30.02,8,4,0,0.00
2013-12-14,21.4,19.0,15.1,18.8,16.7,13.7,94,91,87,30.22,29.73,9,4,0,0.00
2013-12-15,24.1,16.9,8.4,21.4,13.1,4.1,95,85,67,29.90,29.67,16,4,0,0.00
2013-12-16,20.8,10.2,-4.0,9.8,4.0,-6.4,93,77,47,30.07,29.89,7,2,0,0.00
2013-12-17,29.1,21.5,11.8,24.7,18.6,9.6,94,88,81,29.91,29.73,8,3,0,0.00
2013-12-18,32.2,25.7,20.1,24.0,20.4,14.4,94,81,64,29.98,29.75,9,4,0,0.00
2013-12-19,40.6,31.8,25.7,33.3,26.6,17.5,96,81,67,29.91,29.72,7,3,0,0.14
2013-12-20,34.5,32.3,30.2,33.0,31.6,29.2,99,97,94,29.83,29.64,5,1,0,0.46
2013-12-21,32.9,31.7,30.6,32.0,31.1,30.3,99,97,96,29.78,29.61,5,3,0,0.02
2013-12-22,32.2,32.0,31.6,31.2,31.1,30.8,97,97,96,29.62,29.49,4,2,0,0.00
2013-12-24,-1.5,-2.8,-3.5,-4.4,-5.7,-6.4,88,87,87,30.41,30.40,0,0,0,0.00
2013-12-25,24.6,17.4,-1.1,21.3,14.9,-3.5,94,90,81,30.39,29.98,0,0,0,0.00
2013-12-26,28.2,23.4,18.9,23.8,20.8,16.7,96,90,76,30.15,29.90,0,0,0,0.00
2013-12-27,37.9,29.7,23.9,32.3,27.2,22.2,97,90,80,30.21,29.90,0,0,0,0.08
2013-12-28,47.1,38.5,29.7,36.4,32.7,28.4,96,80,65,29.98,29.75,8,4,0,0.76
2013-12-29,42.6,32.5,16.3,33.2,25.8,11.1,92,77,67,29.93,29.59,14,5,0,0.00
2013-12-30,19.6,15.4,12.0,11.5,7.7,3.9,81,72,59,30.17,29.93,8,3,0,0.00
2013-12-31,18.3,14.3,9.7,13.1,9.1,4.6,90,80,60,30.23,29.94,11,5,0,0.00
2014-1-1,15.4,10.8,3.6,9.6,4.9,0.4,88,77,59,30.32,30.18,7,3,0,0.00
2014-1-2,14.9,9.9,-0.2,9.9,5.5,-4.2,87,82,77,30.19,30.04,12,7,0,0.00